This is the latest recevied weather packets stored in our database for station/object VK4TOM-13. If no packets are shown the sender has not sent any weather packets the latest 10 day(s).
| Time | Temp. | Humidity | Pressure | Rain* | Wind** | Luminosity | Snow |
|---|---|---|---|---|---|---|---|
| 1777883865 | 23.33° C | 70% | 1015 hPa | 0 mm | - | - | - |
| 1777883264 | 23.33° C | 70% | 1015 hPa | 0 mm | - | - | - |
| 1777882663 | 23.89° C | 70% | 1014.9 hPa | 0 mm | - | - | - |
| 1777882062 | 23.89° C | 70% | 1014.8 hPa | 0 mm | - | - | - |
| 1777881461 | 24.44° C | 70% | 1014.8 hPa | 0 mm | - | - | - |
| 1777880860 | 25° C | 70% | 1014.8 hPa | 0 mm | - | - | - |
| 1777880259 | 25.56° C | 70% | 1014.6 hPa | 0 mm | - | - | - |
| 1777879658 | 25.56° C | 70% | 1014.6 hPa | 0 mm | - | - | - |
| 1777879057 | 26.11° C | 70% | 1014.5 hPa | 0 mm | - | - | - |
| 1777878456 | 26.11° C | 70% | 1014.3 hPa | 0 mm | - | - | - |
| 1777877855 | 26.67° C | 70% | 1014.1 hPa | 0 mm | - | - | - |
| 1777877254 | 27.22° C | 70% | 1014 hPa | 0 mm | - | - | - |
| 1777876652 | 27.22° C | 70% | 1014 hPa | 0 mm | - | - | - |
| 1777876052 | 27.22° C | 70% | 1013.9 hPa | 0 mm | - | - | - |
| 1777875450 | 27.78° C | 70% | 1013.8 hPa | 0 mm | - | - | - |
| 1777874850 | 28.33° C | 70% | 1013.9 hPa | 0 mm | - | - | - |
| 1777874248 | 28.89° C | 70% | 1013.8 hPa | 0 mm | - | - | - |
| 1777873647 | 30° C | 70% | 1014 hPa | 0 mm | - | - | - |
| 1777873046 | 30.56° C | 70% | 1013.9 hPa | 0 mm | - | - | - |
| 1777872445 | 31.67° C | 70% | 1013.7 hPa | 0 mm | - | - | - |
| 1777871844 | 32.22° C | 70% | 1013.8 hPa | 0 mm | - | - | - |
| 1777871243 | 31.67° C | 70% | 1013.9 hPa | 0 mm | - | - | - |
| 1777870642 | 31.67° C | 70% | 1013.8 hPa | 0 mm | - | - | - |
| 1777870041 | 32.22° C | 70% | 1013.8 hPa | 0 mm | - | - | - |
| 1777869440 | 32.22° C | 70% | 1013.9 hPa | 0 mm | - | - | - |
* Rain since midnight (hover to see other rain measurements)
** Current wind speed in m/s (hover to see current wind gust speed)